EHI
0 0 0 0 0 0 0 0 0 0 0 0 0 0 0 0 0 0 0 0 0 0 0 0 0 0 0 0 0 0 0 0 0 0 0 0 0 0 0 0 0 0 0 0
0 0 0 0 0 0 0 0 0 0 0 0 0 0 0 0 0 0 0 0 0 0 0 0 0 0 0 0 0 0 0 0 0 0 0 0 0 0 0 0 0 0 0 0
0 0 0 0 0 0 0 0 0 0 0 0 0 0 0 0 0 0 0 0 0 0 0 0 0 0 0 0 0 0 0 0 0 0 0 0 0 0 0 0 0 0 0 0
0 0 0 0 0 0 0 0 0 0 0 0 0 0 0 0 0 0 0 0 0 0 0 0 0 0 0 0 0 0 0 0 0 0 0 0 0 0 0 0 0 0 0 0
0 0 0 0 0 0 0 0 0 0 0 0 0 0 0 0 0 0 0 0 0 0 0 0 0 0 0 0 0 0 0 0 0 0 0 0 0 0 0 0 0 0 0 0
0 0 0 0 0 0 0 0 0 0 0 0 0 0 0 0 0 0 0 0 0 0 0 0 0 0 0 0 0 0 0 0 0 0 0 0 0 0 0 0 0 0 0 0
0 0 0 0 0 0 0 0 0 0 0 0 0 0 0 0 0 0 0 0 0 0 0 0 0 0 0 0 0 0 0 0 0 0 0 0 0 0 0 0 0 0 0 0
0 0 0 0 0 0 0 0 0 0 0 0 0 0 0 0 0 0 0 0 0 0 0 0 0 0 0 0 0 0 0 0 0 0 0 0 0 0 0 0 0 0 0 0
0 0 0 0 0 0 0 0 0 0 0 0 0 0 0 0 0 0 0 0 0 0 0 0 0 0 0 0 0 0 0 0 0 0 0 0 0 0 0 0 0 0 0 0
0 0 0 0 0 0 0 0 0 0 0 0 0 0 0 0 0 0 0 0 0 0 0 0 0 0 0 0 0 0 0 0 0 0 0 0 0 0 0 0 0 0 0 0
0 0 0 0 0 0 0 0 0 0 0 0 0 0 0 0 0 0 0 0 0 0 0 0 0 0 0 0 0 0 0 0 0 0 0 0 0 0 0 0 0 0 0 0
0 0 0 0 0 0 0 0 0 0 0 0 0 0 0 0 0 0 0 0 0 0 0 0 0 0 0 0 0 0 0 0 0 0 0 0 0 0 0 0 0 0 0 0
0 0 0 0 0 0 0 0 0 0 0 0 0 0 0 0 0 0 0 0 0 0 0 0 0 0 0 0 0 0 0 0 0 0 0 0 0 0 0 0 0 0 0 0
0 0 0 0 0 0 0 0 0 0 0 0 0 0 0 0 0 0 0 0 0 0 0 0 0 0 0 0 0 0 0 0 0 0 0 0 0 0 0 0 0 0 0 0
0 0 0 0 0 0 0 0 0 0 0 0 0 0 0 0 0 0 0 0 0 0 0 0 0 0 0 0 0 0 0 0 0 0 0 0 0 0 0 0 0 0 0 0
0 0 0 0 0 0 0 0 0 0 0 0 0 0 0 0 0 0 0 0 0 0 0 0 0 0 0 0 0 0 0 0 0 0 0 0 0 0 0 0 0 0 0 0
0 0 0 0 0 0 0 0 0 0 0 0 0 0 0 0 0 0 0 0 0 0 0 0 0 0 0 0 0 0 0 0 0 0 0 0 0 0 0 0 0 0 0 0
0 0 0 0 0 0 0 0 0 0 0 0 0 0 0 0 0 0 0 0 0 0 0 0 0 0 0 0 0 0 0 0 0 0 0 0 0 0 0 0 0 0 0 0
0 0 0 0 0 0 0 0 0 0 0 0 0 0 0 0 0 0 0 0 0 0 0 0 0 0 0 0 0 0 0 0 0 0 0 0 0 0 0 0 0 0 0 0
0 0 0 0 0 0 0 0 0 0 0 0 0 0 0 0 0 0 0 0 0 0 0 0 0 0 0 0 0 0 0 0 0 0 0 0 0 0 0 0 0 0 0 0
0 0 0 0 0 0 0 0 0 0 0 0 0 0 0 0 0 0 0 0 0 0 0 0 0 0 0 0 0 0 0 0 0 0 0 0 0 0 0 0 0 0 0 0
0 0 0 0 0 0 0 0 0 0 0 0 0 0 0 0 0 0 0 0 0 0 0 0 0 0 0 0 0 0 0 0 0 0 0 0 0 0 0 0 0 0 0 0
0 0 0 0 0 0 0 0 0 0 0 0 0 0 0 0 0 0 0 0 0 0 0 0 0 0 0 0 0 0 0 0 0 0 0 0 0 0 0 0 0 0 0 0
0 0 0 0 0 0 0 0 0 0 0 0 0 0 0 0 0 0 0 0 0 0 0 0 0 0 0 0 0 0 0 0 0 0 0 0 0 0 0 0 0 0 0 0
0 0 0 0 0 0 0 0 0 0 0 0 0 0 0 0 0 0 0 0 0 0 0 0 0 0 0 0 0 0 0 0 0 0 0 0 0 0 0 0 0 0 0 0
0 0 0 0 0 0 0 0 0 0 0 0 0 0 0 0 0 0 0 0 0 0 0 0 0 0 0 0 0 0 0 0 0 0 0 0 0 0 0 0 0 0 0 0
0 0 0 0 0 0 0 0 0 0 0 0 0 0 0 0 0 0 0 0 0 0 0 0 0 0 0 0 0 0 0 0 0 0 0 0 0 0 0 0 0 0 0 0
Wind_Speed
10 9 7 7 7 7 8 8 7 7 6 6 3 1 1 1 2 3 3 3 3 3 3 3 3 3 3 3 2 2 2 2 1 1 1 1 1 1 1 1 0 0 1 0
9 8 7 8 8 8 9 9 9 8 7 4 3 3 2 2 2 2 3 3 3 3 3 3 3 3 3 3 2 2 2 2 2 2 1 1 1 1 1 1 1 1 0 1
6 5 6 7 5 6 5 3 3 5 5 4 4 3 2 1 1 1 2 2 2 2 2 2 2 2 2 2 2 2 2 2 2 2 1 1 1 1 0 0 0 1 1 0
4 4 7 3 2 0 2 0 2 2 4 4 4 3 2 2 3 3 2 2 2 2 2 2 2 2 2 2 2 2 2 2 2 2 1 1 1 1 1 0 0 1 1 1
3 5 5 1 3 2 2 2 3 4 5 6 6 3 3 6 5 4 3 3 2 2 2 2 2 2 2 2 2 2 2 2 2 2 2 1 1 1 1 1 1 1 1 1
4 4 3 2 5 6 1 1 6 6 5 5 5 2 2 5 5 5 5 4 3 3 2 2 3 3 2 2 2 2 2 2 2 2 1 2 2 2 1 1 1 1 1 1
6 5 2 4 6 4 1 3 6 5 5 4 2 2 3 4 5 5 4 4 4 4 3 3 3 3 2 3 3 3 3 3 2 2 2 2 2 2 1 1 1 1 1 2
2 3 3 5 4 3 2 3 4 5 4 3 3 4 4 4 4 5 5 5 4 4 3 3 3 3 3 3 3 3 2 2 2 2 2 2 2 2 2 1 1 1 1 2
1 1 2 4 3 3 3 4 4 4 5 4 4 4 4 4 4 5 5 5 4 3 3 4 4 4 3 4 3 3 3 3 3 3 3 2 2 2 2 1 1 1 1 1
1 0 1 3 3 4 5 5 5 4 4 4 4 4 4 4 4 4 4 4 4 4 4 4 5 4 4 4 4 3 3 3 3 3 3 3 2 2 2 2 1 1 1 1
2 2 2 3 4 5 5 5 5 5 5 4 4 3 3 3 3 3 4 4 4 4 4 5 5 5 5 5 5 3 3 3 3 3 3 3 3 2 2 2 2 2 1 1
3 3 3 3 4 4 4 4 4 4 4 4 4 3 3 3 3 3 4 4 4 5 5 5 5 5 6 6 5 4 3 3 3 3 3 2 2 3 5 3 4 3 3 3
3 4 3 3 4 4 4 4 4 3 3 3 3 3 3 3 3 3 4 4 4 4 5 5 5 5 6 6 5 4 4 3 3 3 3 3 2 2 3 4 5 4 4 3
4 3 3 3 4 4 4 4 4 3 3 3 3 3 3 3 4 4 4 4 4 4 4 4 5 5 6 6 5 5 4 4 4 3 3 3 3 3 2 2 3 3 4 5
4 3 2 3 3 4 4 4 4 4 4 4 4 3 3 3 3 4 4 4 4 4 4 4 5 5 5 5 5 5 4 3 3 3 3 3 3 3 3 3 2 3 3 4
4 3 3 3 4 4 4 4 3 3 3 3 3 3 3 3 3 3 4 3 3 4 4 4 5 5 5 5 5 4 4 6 5 3 3 3 3 3 3 3 2 2 3 3
3 4 4 4 5 4 4 3 3 3 3 3 3 4 3 3 3 4 4 4 4 3 4 4 5 6 6 5 5 4 4 4 6 4 3 3 3 3 3 3 2 2 3 4
3 3 3 3 4 5 4 4 3 3 3 3 3 3 3 3 3 4 4 4 4 4 4 5 5 6 5 5 4 3 3 3 3 3 3 3 3 3 3 3 3 3 3 4
4 4 4 4 3 3 3 3 3 2 2 2 2 2 2 2 3 3 3 3 3 4 4 4 8 6 5 6 6 3 3 4 4 4 3 5 4 3 3 3 3 3 3 3
5 5 4 4 4 3 3 3 2 2 2 2 2 2 2 3 3 3 3 3 2 2 3 5 5 5 5 5 6 3 3 4 4 4 3 3 3 3 3 3 3 3 3 3
5 5 5 5 5 4 3 3 2 2 2 2 2 2 3 3 3 3 3 3 3 3 4 7 5 4 4 5 6 3 3 3 4 3 4 4 3 3 3 3 4 4 3 3
5 4 4 4 4 4 4 3 2 2 2 2 2 2 3 3 3 3 3 2 3 6 5 3 3 5 7 7 3 3 3 3 3 3 3 3 3 3 3 4 3 4 4 3
4 4 4 4 4 4 4 3 3 2 2 2 3 3 3 3 3 3 3 3 3 7 5 3 6 9 10 5 3 3 3 3 3 3 3 3 3 3 3 4 4 4 4 4
4 4 4 4 3 3 4 4 3 3 3 3 3 3 2 2 3 2 2 5 8 8 5 6 10 10 9 4 3 3 3 3 3 3 3 3 3 3 3 4 4 4 4 4
4 4 4 4 4 3 4 4 4 3 3 3 3 3 3 2 2 3 3 3 7 7 4 6 10 10 6 3 3 3 3 3 4 4 3 4 4 4 4 4 4 4 4 4
4 4 3 3 3 3 3 3 3 3 3 3 3 3 3 2 2 3 3 3 5 7 5 3 4 5 3 3 3 4 4 4 5 4 4 4 4 4 4 4 5 4 4 4
4 3 3 3 3 3 3 3 3 3 4 4 4 4 3 3 3 3 4 3 4 4 3 3 3 3 3 3 4 4 4 4 4 4 4 4 4 4 4 5 4 4 4 4
Wind_Direction
276 280 270 261 255 244 239 240 246 266 272 286 311 358 36 49 55 66 72 70 69 54 41 32 30 22 14 17 16 11 14 13 357 350 360 359 3 17 34 37 55 166 163 187
276 268 264 265 260 248 245 248 256 270 278 315 9 26 37 47 46 62 75 63 58 48 36 26 19 12 4 1 0 1 359 355 355 359 9 6 2 26 38 27 5 13 156 192
266 273 280 255 242 239 241 243 254 265 287 341 358 356 0 359 13 73 64 53 46 41 25 11 2 358 348 340 349 2 352 349 353 356 6 0 344 2 15 329 338 333 308 246
268 277 241 238 51 102 215 37 9 357 357 352 335 328 10 18 24 45 41 43 39 25 12 6 2 357 351 348 354 356 350 346 354 3 348 333 330 322 305 282 253 263 273 279
250 256 257 311 1 344 243 244 15 345 348 352 351 7 38 24 23 27 28 34 32 21 20 14 4 2 358 352 352 355 352 350 354 348 335 320 303 288 289 273 273 268 263 249
245 250 254 346 340 326 294 219 7 357 350 354 8 1 341 6 14 23 24 26 22 18 26 25 10 8 1 354 350 346 347 346 344 338 332 313 298 294 291 272 255 261 275 258
245 249 264 343 336 358 82 311 347 354 354 359 349 316 340 6 17 27 25 18 14 18 24 18 9 3 356 355 346 346 354 351 348 346 340 324 305 303 290 282 284 276 277 277
249 251 269 4 29 49 337 345 356 354 357 4 356 5 19 18 17 23 22 15 12 18 17 12 7 5 3 351 345 351 355 354 351 349 345 341 330 323 316 299 289 277 281 291
221 223 17 37 42 9 355 357 3 2 360 12 15 15 17 19 20 20 20 11 8 15 16 12 11 14 7 346 347 350 357 357 356 355 353 351 350 342 329 328 310 294 286 290
298 32 22 23 15 15 14 13 12 15 11 18 17 20 23 21 19 17 17 14 9 13 17 13 11 9 359 350 349 353 359 356 354 358 355 356 354 351 341 332 312 298 288 284
283 323 346 21 12 4 4 10 17 19 17 19 21 21 25 18 17 15 13 12 15 18 18 11 8 8 2 358 357 359 1 355 353 356 354 355 0 357 343 340 312 300 283 273
287 331 326 326 347 356 0 2 9 12 8 15 17 19 22 19 18 20 15 14 16 15 12 5 5 5 2 358 360 2 0 358 352 351 351 349 346 351 6 352 351 344 330 310
322 331 332 333 353 7 2 356 2 7 1 2 6 18 22 18 19 22 17 13 10 7 2 0 4 4 359 354 358 5 360 351 344 344 345 341 338 337 336 349 0 357 349 340
344 342 339 350 351 359 358 359 9 15 13 17 17 16 17 15 15 16 9 1 360 3 2 1 3 2 357 353 357 1 357 349 345 342 341 339 339 335 333 334 337 344 352 354
354 358 333 336 349 0 5 11 12 10 15 16 13 9 9 7 1 357 354 354 360 7 3 359 1 356 352 353 354 352 351 351 352 348 344 340 343 339 336 340 341 338 345 352
334 350 354 352 348 352 360 1 354 346 353 353 356 354 353 351 348 349 352 1 5 358 352 352 351 347 350 353 350 348 350 352 351 344 341 342 344 341 339 341 343 343 342 340
348 337 339 336 332 333 334 330 321 322 331 333 336 342 348 353 354 353 352 357 354 344 348 352 347 347 350 352 349 345 346 346 346 345 342 341 340 339 338 338 338 338 337 337
337 323 319 313 311 315 318 319 317 319 315 321 333 342 348 346 336 334 338 344 350 354 359 357 351 347 348 351 351 345 341 339 341 340 339 341 339 336 336 335 335 335 335 335
348 340 336 331 324 316 311 311 313 314 315 322 328 329 327 328 327 330 339 346 351 349 347 349 347 351 349 348 348 341 339 337 337 336 335 336 339 339 341 337 331 330 330 331
343 342 346 344 343 333 321 327 336 337 335 338 344 344 345 344 342 340 343 341 339 330 332 338 344 346 346 340 343 340 341 338 335 335 337 338 337 339 340 334 331 331 330 329
346 349 351 353 350 349 350 353 358 353 354 6 7 349 343 341 341 342 343 341 350 354 348 346 349 340 335 335 340 343 341 336 334 334 335 335 336 336 335 333 332 330 328 327
345 345 347 351 352 350 353 359 4 3 360 360 357 352 349 345 344 345 340 326 340 341 346 342 335 331 333 336 340 340 337 335 334 333 331 329 329 329 330 332 329 326 325 322
342 342 344 348 347 345 353 360 4 6 3 354 345 342 339 331 329 327 330 339 343 337 340 333 329 332 336 344 341 337 335 332 329 326 324 323 322 320 319 319 316 316 317 316
341 345 343 341 346 354 354 354 359 360 354 342 338 332 327 331 335 337 328 328 333 333 335 329 333 336 343 349 339 332 327 323 319 316 315 314 313 313 311 311 310 311 310 309
338 339 341 345 349 348 348 351 355 356 352 350 348 347 339 328 318 320 320 320 325 331 331 331 334 338 343 329 325 319 314 309 308 309 307 308 307 307 305 304 303 303 302 300
338 339 339 340 337 335 337 342 344 341 339 340 342 342 340 337 331 324 323 322 321 327 329 320 318 325 322 317 314 311 308 311 316 315 309 306 304 303 301 301 300 297 295 295
335 338 343 348 351 350 344 339 336 333 332 329 325 327 331 332 330 328 325 322 321 320 315 314 315 313 312 310 308 307 306 304 302 300 300 299 298 298 299 297 295 293 293 292